sat.trackr.live / text

‹ back to catalog

ONEWEB-0508

NORAD 54126 · 2022-138P

PAYLOAD ACTIVE UNKNOWN

§ Identity

Operator
Country
UK
Launch date
2022-10-22
Launch site
SRILR
Launch vehicle
Mass (kg)
RCS (m²)

Purposes: comms

External: N2YO · Heavens-Above · Gunter

§ Orbital elements

Epoch: 2026-09-19T21:18:59.535648Z

Period
109.11 min
Inclination
87.9108°
Eccentricity
0.0001908
Mean motion
13.19723647 rev/d
Perigee alt
1,184.3 km
Apogee alt
1,187.2 km
Semi-major
7,563.9 km
B*
1.4176e-4
RAAN
286.1044°
Arg perigee
81.5499°
Mean anomaly
278.5850°
Rev number
18,932

§ Raw data

ONEWEB-05081 54126U 22138P   26262.88818907  .00000070  00000+0  14176-3 0  99992 54126  87.9108 286.1044 0001908  81.5499 278.5850 13.19723647189323

JSON: /api/v1/satellites/54126 · /tle

For live sub-satellite position, see the globe view (requires WebGL).

§ Visibility from observer

Set your observer location to see the next 7 days of passes ≥ 10°. The values pass through the URL so the page stays shareable.

No JS? Fill the form by hand. The geolocation button needs JavaScript.